Location: Agendoh
(31.0664°N, 8.9343°W)
Time: 05:22:10
(UTC+00:00)

Cosmos 1151 Rocket - Pass Details

Date: 05 July 2022
Orbit: 591 x 615 km, 82.5° (Epoch: 16 August)

Event Time Altitude Azimuth Distance (km) Brightness Sun altitude
Rises 02:20:57 0° 358° (N) 2,887 7.3 -31.0°
Reaches altitude 10° 02:23:12 10° 1° (N) 1,978 6.4 -30.8°
Enters shadow 02:25:54 35° 16° (NNE) 988 4.5 -30.5°
